Location: Basse Occidentale du Courleau
(48.3833°N, 4.8333°W)
Time: 19:01:16
(UTC+00:00)

Cosmos 1869 - Pass Details

Date: 05 July 2020
Orbit: 520 x 563 km, 82.5° (Epoch: 05 August)

Event Time Altitude Azimuth Distance (km) Brightness Sun altitude
Rises 22:00:37 0° 355° (N) 2,699 8.0 -12.0°
Reaches altitude 10° 22:02:50 10° 2° (N) 1,810 6.8 -12.2°
Maximum altitude 22:06:41 46° 76° (ENE) 741 3.8 -12.6°
Enters shadow 22:09:06 20° 142° (SE) 1,282 4.5 -12.8°
